Year,Month,Day,Hour,Minute,Value (Times are PST for temperature in C)
2011,07,09,00,00,11.50
2011,07,09,00,01,11.50
2011,07,09,00,02,11.50
2011,07,09,00,03,11.50
2011,07,09,00,04,11.40
2011,07,09,00,05,11.40
2011,07,09,00,06,11.40
2011,07,09,00,07,11.40
2011,07,09,00,08,11.40
2011,07,09,00,09,11.40
2011,07,09,00,10,11.30
2011,07,09,00,11,11.30
2011,07,09,00,12,11.30
2011,07,09,00,13,11.30
2011,07,09,00,14,11.30
2011,07,09,00,15,11.30
2011,07,09,00,16,11.20
2011,07,09,00,17,11.20
2011,07,09,00,18,11.20
2011,07,09,00,19,11.20
2011,07,09,00,20,11.20
2011,07,09,00,21,11.10
2011,07,09,00,22,11.10
2011,07,09,00,23,11.10
2011,07,09,00,24,11.10
2011,07,09,00,25,11.10
2011,07,09,00,26,11.10
2011,07,09,00,27,11.10
2011,07,09,00,28,11.10
2011,07,09,00,29,11.10
2011,07,09,00,30,11.10
2011,07,09,00,31,11.10
2011,07,09,00,32,11.00
2011,07,09,00,33,11.00
2011,07,09,00,34,11.00
2011,07,09,00,35,10.90
2011,07,09,00,36,10.90
2011,07,09,00,37,10.90
2011,07,09,00,38,10.90
2011,07,09,00,39,10.90
2011,07,09,00,40,10.90
2011,07,09,00,41,10.90
2011,07,09,00,42,10.80
2011,07,09,00,43,10.80
2011,07,09,00,44,10.80
2011,07,09,00,45,10.80
2011,07,09,00,46,10.80
2011,07,09,00,47,10.80
2011,07,09,00,48,10.80
2011,07,09,00,49,10.80
2011,07,09,00,50,10.80
2011,07,09,00,51,10.80
2011,07,09,00,52,10.70
2011,07,09,00,53,10.70
2011,07,09,00,54,10.70
2011,07,09,00,55,10.70
2011,07,09,00,56,10.70
2011,07,09,00,57,10.70
2011,07,09,00,58,10.60
2011,07,09,00,59,10.60
2011,07,09,01,00,10.60
2011,07,09,01,01,10.60
2011,07,09,01,02,10.60
2011,07,09,01,03,10.60
2011,07,09,01,04,10.60
2011,07,09,01,05,10.50
2011,07,09,01,06,10.50
2011,07,09,01,07,10.50
2011,07,09,01,08,10.40
2011,07,09,01,09,10.40
2011,07,09,01,10,10.40
2011,07,09,01,11,10.30
2011,07,09,01,12,10.30
2011,07,09,01,13,10.30
2011,07,09,01,14,10.20
2011,07,09,01,15,10.20
2011,07,09,01,16,10.20
2011,07,09,01,17,10.10
2011,07,09,01,18,10.10
2011,07,09,01,19,10.00
2011,07,09,01,20,10.00
2011,07,09,01,21,10.00
2011,07,09,01,22,9.90
2011,07,09,01,23,9.90
2011,07,09,01,24,9.80
2011,07,09,01,25,9.80
2011,07,09,01,26,9.80
2011,07,09,01,27,9.80
2011,07,09,01,28,9.70
2011,07,09,01,29,9.70
2011,07,09,01,30,9.70
2011,07,09,01,31,9.70
2011,07,09,01,32,9.60
2011,07,09,01,33,9.60
2011,07,09,01,34,9.70
2011,07,09,01,35,9.70
2011,07,09,01,36,9.70
2011,07,09,01,37,9.80
2011,07,09,01,38,9.80
2011,07,09,01,39,9.90
2011,07,09,01,40,9.90
2011,07,09,01,41,9.90
2011,07,09,01,42,10.00
2011,07,09,01,43,10.00
2011,07,09,01,44,10.10
2011,07,09,01,45,10.10
2011,07,09,01,46,10.10
2011,07,09,01,47,10.10
2011,07,09,01,48,10.10
2011,07,09,01,49,10.20
2011,07,09,01,50,10.20
2011,07,09,01,51,10.20
2011,07,09,01,52,10.20
2011,07,09,01,53,10.20
2011,07,09,01,54,10.20
2011,07,09,01,55,10.20
2011,07,09,01,56,10.10
2011,07,09,01,57,10.10
2011,07,09,01,58,10.10
2011,07,09,01,59,10.00
2011,07,09,02,00,10.00
2011,07,09,02,01,9.90
2011,07,09,02,02,9.90
2011,07,09,02,03,9.90
2011,07,09,02,04,9.80
2011,07,09,02,05,9.80
2011,07,09,02,06,9.80
2011,07,09,02,07,9.80
2011,07,09,02,08,9.80
2011,07,09,02,09,9.80
2011,07,09,02,10,9.80
2011,07,09,02,11,9.80
2011,07,09,02,12,9.80
2011,07,09,02,13,9.80
2011,07,09,02,14,9.80
2011,07,09,02,15,9.80
2011,07,09,02,16,9.80
2011,07,09,02,17,9.80
2011,07,09,02,18,9.90
2011,07,09,02,19,9.90
2011,07,09,02,20,9.90
2011,07,09,02,21,9.90
2011,07,09,02,22,9.90
2011,07,09,02,23,9.90
2011,07,09,02,24,9.80
2011,07,09,02,25,9.80
2011,07,09,02,26,9.70
2011,07,09,02,27,9.70
2011,07,09,02,28,9.60
2011,07,09,02,29,9.60
2011,07,09,02,30,9.60
2011,07,09,02,31,9.60
2011,07,09,02,32,9.60
2011,07,09,02,33,9.60
2011,07,09,02,34,9.60
2011,07,09,02,35,9.70
2011,07,09,02,36,9.70
2011,07,09,02,37,9.70
2011,07,09,02,38,9.70
2011,07,09,02,39,9.70
2011,07,09,02,40,9.70
2011,07,09,02,41,9.70
2011,07,09,02,42,9.70
2011,07,09,02,43,9.70
2011,07,09,02,44,9.70
2011,07,09,02,45,9.70
2011,07,09,02,46,9.70
2011,07,09,02,47,9.70
2011,07,09,02,48,9.70
2011,07,09,02,49,9.70
2011,07,09,02,50,9.70
2011,07,09,02,51,9.70
2011,07,09,02,52,9.70
2011,07,09,02,53,9.70
2011,07,09,02,54,9.70
2011,07,09,02,55,9.70
2011,07,09,02,56,9.70
2011,07,09,02,57,9.70
2011,07,09,02,58,9.70
2011,07,09,02,59,9.60
2011,07,09,03,00,9.60
2011,07,09,03,01,9.60
2011,07,09,03,02,9.60
2011,07,09,03,03,9.60
2011,07,09,03,04,9.50
2011,07,09,03,05,9.40
2011,07,09,03,06,9.40
2011,07,09,03,07,9.30
2011,07,09,03,08,9.20
2011,07,09,03,09,9.20
2011,07,09,03,10,9.10
2011,07,09,03,11,9.10
2011,07,09,03,12,9.10
2011,07,09,03,13,9.00
2011,07,09,03,14,9.00
2011,07,09,03,15,9.00
2011,07,09,03,16,8.90
2011,07,09,03,17,8.90
2011,07,09,03,18,8.90
2011,07,09,03,19,8.90
2011,07,09,03,20,8.90
2011,07,09,03,21,8.80
2011,07,09,03,22,8.80
2011,07,09,03,23,8.70
2011,07,09,03,24,8.70
2011,07,09,03,25,8.70
2011,07,09,03,26,8.70
2011,07,09,03,27,8.60
2011,07,09,03,28,8.60
2011,07,09,03,29,8.60
2011,07,09,03,30,8.70
2011,07,09,03,31,8.70
2011,07,09,03,32,8.70
2011,07,09,03,33,8.80
2011,07,09,03,34,8.80
2011,07,09,03,35,8.90
2011,07,09,03,36,8.90
2011,07,09,03,37,8.90
2011,07,09,03,38,8.90
2011,07,09,03,39,8.90
2011,07,09,03,40,8.90
2011,07,09,03,41,8.90
2011,07,09,03,42,8.90
2011,07,09,03,43,8.80
2011,07,09,03,44,8.80
2011,07,09,03,45,8.80
2011,07,09,03,46,8.80
2011,07,09,03,47,8.70
2011,07,09,03,48,8.70
2011,07,09,03,49,8.70
2011,07,09,03,50,8.70
2011,07,09,03,51,8.70
2011,07,09,03,52,8.70
2011,07,09,03,53,8.70
2011,07,09,03,54,8.70
2011,07,09,03,55,8.70
2011,07,09,03,56,8.70
2011,07,09,03,57,8.70
2011,07,09,03,58,8.60
2011,07,09,03,59,8.60
2011,07,09,04,00,8.60
2011,07,09,04,01,8.50
2011,07,09,04,02,8.50
2011,07,09,04,03,8.40
2011,07,09,04,04,8.40
2011,07,09,04,05,8.30
2011,07,09,04,06,8.30
2011,07,09,04,07,8.30
2011,07,09,04,08,8.20
2011,07,09,04,09,8.20
2011,07,09,04,10,8.10
2011,07,09,04,11,8.10
2011,07,09,04,12,8.00
2011,07,09,04,13,8.00
2011,07,09,04,14,7.90
2011,07,09,04,15,7.90
2011,07,09,04,16,7.90
2011,07,09,04,17,7.80
2011,07,09,04,18,7.80
2011,07,09,04,19,7.80
2011,07,09,04,20,7.80
2011,07,09,04,21,7.70
2011,07,09,04,22,7.70
2011,07,09,04,23,7.70
2011,07,09,04,24,7.70
2011,07,09,04,25,7.70
2011,07,09,04,26,7.70
2011,07,09,04,27,7.70
2011,07,09,04,28,7.70
2011,07,09,04,29,7.80
2011,07,09,04,30,7.80
2011,07,09,04,31,7.80
2011,07,09,04,32,7.80
2011,07,09,04,33,7.80
2011,07,09,04,34,7.80
2011,07,09,04,35,7.80
2011,07,09,04,36,7.80
2011,07,09,04,37,7.80
2011,07,09,04,38,7.80
2011,07,09,04,39,7.80
2011,07,09,04,40,7.80
2011,07,09,04,41,7.70
2011,07,09,04,42,7.70
2011,07,09,04,43,7.70
2011,07,09,04,44,7.70
2011,07,09,04,45,7.60
2011,07,09,04,46,7.60
2011,07,09,04,47,7.60
2011,07,09,04,48,7.60
2011,07,09,04,49,7.60
2011,07,09,04,50,7.60
2011,07,09,04,51,7.60
2011,07,09,04,52,7.60
2011,07,09,04,53,7.60
2011,07,09,04,54,7.70
2011,07,09,04,55,7.70
2011,07,09,04,56,7.70
2011,07,09,04,57,7.70
2011,07,09,04,58,7.70
2011,07,09,04,59,7.70
2011,07,09,05,00,7.70
2011,07,09,05,01,7.70
2011,07,09,05,02,7.70
2011,07,09,05,03,7.70
2011,07,09,05,04,7.70
2011,07,09,05,05,7.70
2011,07,09,05,06,7.70
2011,07,09,05,07,7.70
2011,07,09,05,08,7.70
2011,07,09,05,09,7.70
2011,07,09,05,10,7.70
2011,07,09,05,11,7.70
2011,07,09,05,12,7.70
2011,07,09,05,13,7.70
2011,07,09,05,14,7.70
2011,07,09,05,15,7.70
2011,07,09,05,16,7.70
2011,07,09,05,17,7.70
2011,07,09,05,18,7.60
2011,07,09,05,19,7.60
2011,07,09,05,20,7.60
2011,07,09,05,21,7.60
2011,07,09,05,22,7.60
2011,07,09,05,23,7.60
2011,07,09,05,24,7.60
2011,07,09,05,25,7.60
2011,07,09,05,26,7.60
2011,07,09,05,27,7.60
2011,07,09,05,28,7.60
2011,07,09,05,29,7.60
2011,07,09,05,30,7.60
2011,07,09,05,31,7.60
2011,07,09,05,32,7.60
2011,07,09,05,33,7.60
2011,07,09,05,34,7.60
2011,07,09,05,35,7.70
2011,07,09,05,36,7.70
2011,07,09,05,37,7.70
2011,07,09,05,38,7.70
2011,07,09,05,39,7.80
2011,07,09,05,40,7.80
2011,07,09,05,41,7.90
2011,07,09,05,42,7.90
2011,07,09,05,43,7.90
2011,07,09,05,44,7.90
2011,07,09,05,45,7.90
2011,07,09,05,46,7.90
2011,07,09,05,47,7.90
2011,07,09,05,48,7.80
2011,07,09,05,49,7.80
2011,07,09,05,50,7.80
2011,07,09,05,51,7.80
2011,07,09,05,52,7.80
2011,07,09,05,53,7.80
2011,07,09,05,54,7.80
2011,07,09,05,55,7.80
2011,07,09,05,56,7.80
2011,07,09,05,57,7.80
2011,07,09,05,58,7.80
2011,07,09,05,59,7.80
2011,07,09,06,00,7.80
2011,07,09,06,01,7.90
2011,07,09,06,02,7.90
2011,07,09,06,03,7.90
2011,07,09,06,04,7.90
2011,07,09,06,05,7.90
2011,07,09,06,06,7.90
2011,07,09,06,07,7.90
2011,07,09,06,08,8.00
2011,07,09,06,09,8.00
2011,07,09,06,10,8.00
2011,07,09,06,11,8.00
2011,07,09,06,12,7.90
2011,07,09,06,13,7.90
2011,07,09,06,14,8.00
2011,07,09,06,15,7.90
2011,07,09,06,16,7.90
2011,07,09,06,17,7.90
2011,07,09,06,18,7.90
2011,07,09,06,19,7.90
2011,07,09,06,20,7.80
2011,07,09,06,21,7.80
2011,07,09,06,22,7.80
2011,07,09,06,23,7.80
2011,07,09,06,24,7.80
2011,07,09,06,25,7.70
2011,07,09,06,26,7.70
2011,07,09,06,27,7.70
2011,07,09,06,28,7.70
2011,07,09,06,29,7.60
2011,07,09,06,30,7.60
2011,07,09,06,31,7.50
2011,07,09,06,32,7.50
2011,07,09,06,33,7.50
2011,07,09,06,34,7.50
2011,07,09,06,35,7.50
2011,07,09,06,36,7.50
2011,07,09,06,37,7.50
2011,07,09,06,38,7.50
2011,07,09,06,39,7.50
2011,07,09,06,40,7.60
2011,07,09,06,41,7.60
2011,07,09,06,42,7.60
2011,07,09,06,43,7.60
2011,07,09,06,44,7.60
2011,07,09,06,45,7.60
2011,07,09,06,46,7.60
2011,07,09,06,47,7.60
2011,07,09,06,48,7.60
2011,07,09,06,49,7.60
2011,07,09,06,50,7.60
2011,07,09,06,51,7.70
2011,07,09,06,52,7.70
2011,07,09,06,53,7.70
2011,07,09,06,54,7.70
2011,07,09,06,55,7.70
2011,07,09,06,56,7.70
2011,07,09,06,57,7.70
2011,07,09,06,58,7.80
2011,07,09,06,59,7.80
2011,07,09,07,00,7.80
2011,07,09,07,01,7.80
2011,07,09,07,02,7.90
2011,07,09,07,03,7.90
2011,07,09,07,04,7.90
2011,07,09,07,05,8.00
2011,07,09,07,06,8.10
2011,07,09,07,07,8.10
2011,07,09,07,08,8.20
2011,07,09,07,09,8.20
2011,07,09,07,10,8.30
2011,07,09,07,11,8.30
2011,07,09,07,12,8.40
2011,07,09,07,13,8.40
2011,07,09,07,14,8.50
2011,07,09,07,15,8.50
2011,07,09,07,16,8.60
2011,07,09,07,17,8.60
2011,07,09,07,18,8.70
2011,07,09,07,19,8.70
2011,07,09,07,20,8.80
2011,07,09,07,21,8.80
2011,07,09,07,22,8.90
2011,07,09,07,23,8.90
2011,07,09,07,24,9.00
2011,07,09,07,25,9.10
2011,07,09,07,26,9.20
2011,07,09,07,27,9.20
2011,07,09,07,28,9.30
2011,07,09,07,29,9.30
2011,07,09,07,30,9.40
2011,07,09,07,31,9.40
2011,07,09,07,32,9.40
2011,07,09,07,33,9.50
2011,07,09,07,34,9.50
2011,07,09,07,35,9.60
2011,07,09,07,36,9.60
2011,07,09,07,37,9.60
2011,07,09,07,38,9.70
2011,07,09,07,39,9.70
2011,07,09,07,40,9.80
2011,07,09,07,41,9.80
2011,07,09,07,42,9.90
2011,07,09,07,43,9.90
2011,07,09,07,44,9.90
2011,07,09,07,45,10.00
2011,07,09,07,46,10.10
2011,07,09,07,47,10.10
2011,07,09,07,48,10.20
2011,07,09,07,49,10.20
2011,07,09,07,50,10.30
2011,07,09,07,51,10.30
2011,07,09,07,52,10.40
2011,07,09,07,53,10.50
2011,07,09,07,54,10.50
2011,07,09,07,55,10.60
2011,07,09,07,56,10.60
2011,07,09,07,57,10.70
2011,07,09,07,58,10.70
2011,07,09,07,59,10.80
2011,07,09,08,00,10.80
2011,07,09,08,01,10.80
2011,07,09,08,02,10.90
2011,07,09,08,03,11.00
2011,07,09,08,04,11.00
2011,07,09,08,05,11.10
2011,07,09,08,06,11.20
2011,07,09,08,07,11.30
2011,07,09,08,08,11.30
2011,07,09,08,09,11.40
2011,07,09,08,10,11.50
2011,07,09,08,11,11.60
2011,07,09,08,12,11.70
2011,07,09,08,13,11.80
2011,07,09,08,14,11.90
2011,07,09,08,15,12.00
2011,07,09,08,16,12.10
2011,07,09,08,17,12.20
2011,07,09,08,18,12.40
2011,07,09,08,19,12.50
2011,07,09,08,20,12.60
2011,07,09,08,21,12.80
2011,07,09,08,22,12.90
2011,07,09,08,23,13.00
2011,07,09,08,24,13.10
2011,07,09,08,25,13.10
2011,07,09,08,26,13.20
2011,07,09,08,27,13.30
2011,07,09,08,28,13.30
2011,07,09,08,29,13.40
2011,07,09,08,30,13.60
2011,07,09,08,31,13.70
2011,07,09,08,32,13.70
2011,07,09,08,33,13.80
2011,07,09,08,34,13.90
2011,07,09,08,35,13.90
2011,07,09,08,36,14.00
2011,07,09,08,37,14.00
2011,07,09,08,38,14.10
2011,07,09,08,39,14.10
2011,07,09,08,40,14.10
2011,07,09,08,41,14.20
2011,07,09,08,42,14.20
2011,07,09,08,43,14.20
2011,07,09,08,44,14.30
2011,07,09,08,45,14.30
2011,07,09,08,46,14.30
2011,07,09,08,47,14.40
2011,07,09,08,48,14.50
2011,07,09,08,49,14.60
2011,07,09,08,50,14.60
2011,07,09,08,51,14.70
2011,07,09,08,52,14.80
2011,07,09,08,53,15.00
2011,07,09,08,54,15.00
2011,07,09,08,55,15.00
2011,07,09,08,56,15.10
2011,07,09,08,57,15.20
2011,07,09,08,58,15.40
2011,07,09,08,59,15.50
2011,07,09,09,00,15.60
2011,07,09,09,01,15.80
2011,07,09,09,02,15.80
2011,07,09,09,03,15.90
2011,07,09,09,04,16.00
2011,07,09,09,05,16.00
2011,07,09,09,06,15.90
2011,07,09,09,07,15.90
2011,07,09,09,08,16.00
2011,07,09,09,09,16.10
2011,07,09,09,10,16.10
2011,07,09,09,11,16.10
2011,07,09,09,12,16.10
2011,07,09,09,13,16.10
2011,07,09,09,14,16.10
2011,07,09,09,15,16.10
2011,07,09,09,16,16.10
2011,07,09,09,17,16.10
2011,07,09,09,18,16.20
2011,07,09,09,19,16.20
2011,07,09,09,20,16.30
2011,07,09,09,21,16.40
2011,07,09,09,22,16.40
2011,07,09,09,23,16.50
2011,07,09,09,24,16.50
2011,07,09,09,25,16.50
2011,07,09,09,26,16.40
2011,07,09,09,27,16.40
2011,07,09,09,28,16.40
2011,07,09,09,29,16.50
2011,07,09,09,30,16.50
2011,07,09,09,31,16.50
2011,07,09,09,32,16.50
2011,07,09,09,33,16.50
2011,07,09,09,34,16.60
2011,07,09,09,35,16.60
2011,07,09,09,36,16.70
2011,07,09,09,37,16.60
2011,07,09,09,38,16.60
2011,07,09,09,39,16.60
2011,07,09,09,40,16.70
2011,07,09,09,41,16.70
2011,07,09,09,42,16.70
2011,07,09,09,43,16.80
2011,07,09,09,44,16.80
2011,07,09,09,45,16.80
2011,07,09,09,46,16.90
2011,07,09,09,47,16.90
2011,07,09,09,48,16.90
2011,07,09,09,49,16.90
2011,07,09,09,50,16.80
2011,07,09,09,51,16.70
2011,07,09,09,52,16.60
2011,07,09,09,53,16.60
2011,07,09,09,54,16.60
2011,07,09,09,55,16.70
2011,07,09,09,56,16.70
2011,07,09,09,57,16.70
2011,07,09,09,58,16.70
2011,07,09,09,59,16.70
2011,07,09,10,00,16.80
2011,07,09,10,01,16.80
2011,07,09,10,02,16.80
2011,07,09,10,03,16.80
2011,07,09,10,04,16.80
2011,07,09,10,05,16.90
2011,07,09,10,06,16.90
2011,07,09,10,07,16.90
2011,07,09,10,08,17.00
2011,07,09,10,09,16.90
2011,07,09,10,10,16.90
2011,07,09,10,11,16.80
2011,07,09,10,12,16.80
2011,07,09,10,13,16.80
2011,07,09,10,14,16.80
2011,07,09,10,15,16.90
2011,07,09,10,16,16.90
2011,07,09,10,17,16.90
2011,07,09,10,18,17.00
2011,07,09,10,19,17.00
2011,07,09,10,20,17.00
2011,07,09,10,21,17.10
2011,07,09,10,22,17.00
2011,07,09,10,23,17.00
2011,07,09,10,24,17.00
2011,07,09,10,25,17.10
2011,07,09,10,26,17.20
2011,07,09,10,27,17.20
2011,07,09,10,28,17.30
2011,07,09,10,29,17.30
2011,07,09,10,30,17.30
2011,07,09,10,31,17.30
2011,07,09,10,32,17.30
2011,07,09,10,33,17.30
2011,07,09,10,34,17.30
2011,07,09,10,35,17.30
2011,07,09,10,36,17.30
2011,07,09,10,37,17.40
2011,07,09,10,38,17.50
2011,07,09,10,39,17.50
2011,07,09,10,40,17.60
2011,07,09,10,41,17.60
2011,07,09,10,42,17.60
2011,07,09,10,43,17.60
2011,07,09,10,44,17.60
2011,07,09,10,45,17.60
2011,07,09,10,46,17.70
2011,07,09,10,47,17.70
2011,07,09,10,48,17.70
2011,07,09,10,49,17.70
2011,07,09,10,50,17.60
2011,07,09,10,51,17.50
2011,07,09,10,52,17.40
2011,07,09,10,53,17.40
2011,07,09,10,54,17.30
2011,07,09,10,55,17.30
2011,07,09,10,56,17.40
2011,07,09,10,57,17.30
2011,07,09,10,58,17.30
2011,07,09,10,59,17.20
2011,07,09,11,00,17.20
2011,07,09,11,01,17.30
2011,07,09,11,02,17.30
2011,07,09,11,03,17.40
2011,07,09,11,04,17.40
2011,07,09,11,05,17.40
2011,07,09,11,06,17.40
2011,07,09,11,07,17.30
2011,07,09,11,08,17.30
2011,07,09,11,09,17.30
2011,07,09,11,10,17.30
2011,07,09,11,11,17.30
2011,07,09,11,12,17.20
2011,07,09,11,13,17.20
2011,07,09,11,14,17.10
2011,07,09,11,15,17.10
2011,07,09,11,16,17.20
2011,07,09,11,17,17.30
2011,07,09,11,18,17.30
2011,07,09,11,19,17.40
2011,07,09,11,20,17.40
2011,07,09,11,21,17.40
2011,07,09,11,22,17.30
2011,07,09,11,23,17.30
2011,07,09,11,24,17.30
2011,07,09,11,25,17.30
2011,07,09,11,26,17.40
2011,07,09,11,27,17.40
2011,07,09,11,28,17.40
2011,07,09,11,29,17.50
2011,07,09,11,30,17.50
2011,07,09,11,31,17.50
2011,07,09,11,32,17.60
2011,07,09,11,33,17.60
2011,07,09,11,34,17.60
2011,07,09,11,35,17.60
2011,07,09,11,36,17.60
2011,07,09,11,37,17.60
2011,07,09,11,38,17.70
2011,07,09,11,39,17.70
2011,07,09,11,40,17.70
2011,07,09,11,41,17.70
2011,07,09,11,42,17.60
2011,07,09,11,43,17.50
2011,07,09,11,44,17.40
2011,07,09,11,45,17.30
2011,07,09,11,46,17.40
2011,07,09,11,47,17.50
2011,07,09,11,48,17.50
2011,07,09,11,49,17.60
2011,07,09,11,50,17.50
2011,07,09,11,51,17.50
2011,07,09,11,52,17.50
2011,07,09,11,53,17.50
2011,07,09,11,54,17.60
2011,07,09,11,55,17.70
2011,07,09,11,56,17.80
2011,07,09,11,57,17.80
2011,07,09,11,58,17.90
2011,07,09,11,59,17.90
2011,07,09,12,00,17.90
2011,07,09,12,01,17.90
2011,07,09,12,02,17.90
2011,07,09,12,03,18.00
2011,07,09,12,04,18.10
2011,07,09,12,05,18.10
2011,07,09,12,06,18.20
2011,07,09,12,07,18.20
2011,07,09,12,08,18.20
2011,07,09,12,09,18.20
2011,07,09,12,10,18.20
2011,07,09,12,11,18.20
2011,07,09,12,12,18.10
2011,07,09,12,13,18.10
2011,07,09,12,14,18.00
2011,07,09,12,15,18.00
2011,07,09,12,16,17.90
2011,07,09,12,17,17.90
2011,07,09,12,18,17.80
2011,07,09,12,19,17.70
2011,07,09,12,20,17.60
2011,07,09,12,21,17.60
2011,07,09,12,22,17.60
2011,07,09,12,23,17.60
2011,07,09,12,24,17.70
2011,07,09,12,25,17.70
2011,07,09,12,26,17.80
2011,07,09,12,27,17.80
2011,07,09,12,28,17.90
2011,07,09,12,29,18.00
2011,07,09,12,30,18.10
2011,07,09,12,31,18.10
2011,07,09,12,32,18.00
2011,07,09,12,33,18.00
2011,07,09,12,34,17.90
2011,07,09,12,35,18.00
2011,07,09,12,36,18.10
2011,07,09,12,37,18.20
2011,07,09,12,38,18.30
2011,07,09,12,39,18.40
2011,07,09,12,40,18.60
2011,07,09,12,41,18.60
2011,07,09,12,42,18.50
2011,07,09,12,43,18.40
2011,07,09,12,44,18.10
2011,07,09,12,45,17.90
2011,07,09,12,46,17.80
2011,07,09,12,47,17.70
2011,07,09,12,48,17.80
2011,07,09,12,49,17.80
2011,07,09,12,50,17.90
2011,07,09,12,51,17.90
2011,07,09,12,52,17.80
2011,07,09,12,53,17.80
2011,07,09,12,54,17.80
2011,07,09,12,55,17.80
2011,07,09,12,56,17.80
2011,07,09,12,57,17.80
2011,07,09,12,58,17.80
2011,07,09,12,59,17.80
2011,07,09,13,00,17.80
2011,07,09,13,01,17.80
2011,07,09,13,02,17.70
2011,07,09,13,03,17.60
2011,07,09,13,04,17.60
2011,07,09,13,05,17.50
2011,07,09,13,06,17.60
2011,07,09,13,07,17.70
2011,07,09,13,08,17.80
2011,07,09,13,09,17.80
2011,07,09,13,10,17.90
2011,07,09,13,11,17.90
2011,07,09,13,12,18.00
2011,07,09,13,13,18.10
2011,07,09,13,14,18.20
2011,07,09,13,15,18.10
2011,07,09,13,16,18.10
2011,07,09,13,17,18.20
2011,07,09,13,18,18.30
2011,07,09,13,19,18.30
2011,07,09,13,20,18.20
2011,07,09,13,21,18.10
2011,07,09,13,22,18.20
2011,07,09,13,23,18.20
2011,07,09,13,24,18.20
2011,07,09,13,25,18.20
2011,07,09,13,26,18.20
2011,07,09,13,27,18.20
2011,07,09,13,28,18.20
2011,07,09,13,29,18.20
2011,07,09,13,30,18.20
2011,07,09,13,31,18.30
2011,07,09,13,32,18.40
2011,07,09,13,33,18.20
2011,07,09,13,34,18.20
2011,07,09,13,35,18.10
2011,07,09,13,36,18.00
2011,07,09,13,37,18.00
2011,07,09,13,38,18.00
2011,07,09,13,39,18.00
2011,07,09,13,40,17.90
2011,07,09,13,41,17.80
2011,07,09,13,42,17.80
2011,07,09,13,43,17.80
2011,07,09,13,44,17.90
2011,07,09,13,45,17.90
2011,07,09,13,46,17.80
2011,07,09,13,47,17.80
2011,07,09,13,48,17.80
2011,07,09,13,49,17.80
2011,07,09,13,50,17.90
2011,07,09,13,51,18.00
2011,07,09,13,52,18.00
2011,07,09,13,53,18.10
2011,07,09,13,54,18.10
2011,07,09,13,55,18.00
2011,07,09,13,56,17.90
2011,07,09,13,57,17.80
2011,07,09,13,58,17.80
2011,07,09,13,59,17.70
2011,07,09,14,00,17.70
2011,07,09,14,01,17.80
2011,07,09,14,02,17.80
2011,07,09,14,03,18.00
2011,07,09,14,04,18.10
2011,07,09,14,05,18.10
2011,07,09,14,06,18.10
2011,07,09,14,07,18.10
2011,07,09,14,08,18.00
2011,07,09,14,09,17.90
2011,07,09,14,10,17.90
2011,07,09,14,11,17.80
2011,07,09,14,12,17.70
2011,07,09,14,13,17.70
2011,07,09,14,14,17.70
2011,07,09,14,15,17.50
2011,07,09,14,16,17.50
2011,07,09,14,17,17.50
2011,07,09,14,18,17.50
2011,07,09,14,19,17.60
2011,07,09,14,20,17.60
2011,07,09,14,21,17.60
2011,07,09,14,22,17.60
2011,07,09,14,23,17.50
2011,07,09,14,24,17.60
2011,07,09,14,25,17.60
2011,07,09,14,26,17.60
2011,07,09,14,27,17.70
2011,07,09,14,28,17.90
2011,07,09,14,29,18.00
2011,07,09,14,30,18.00
2011,07,09,14,31,18.10
2011,07,09,14,32,18.10
2011,07,09,14,33,18.00
2011,07,09,14,34,17.90
2011,07,09,14,35,18.00
2011,07,09,14,36,18.10
2011,07,09,14,37,18.10
2011,07,09,14,38,18.20
2011,07,09,14,39,18.20
2011,07,09,14,40,18.20
2011,07,09,14,41,18.20
2011,07,09,14,42,18.10
2011,07,09,14,43,18.00
2011,07,09,14,44,18.00
2011,07,09,14,45,17.90
2011,07,09,14,46,18.00
2011,07,09,14,47,18.00
2011,07,09,14,48,18.00
2011,07,09,14,49,18.00
2011,07,09,14,50,18.10
2011,07,09,14,51,18.20
2011,07,09,14,52,18.10
2011,07,09,14,53,18.10
2011,07,09,14,54,18.10
2011,07,09,14,55,18.10
2011,07,09,14,56,18.10
2011,07,09,14,57,18.10
2011,07,09,14,58,18.10
2011,07,09,14,59,18.00
2011,07,09,15,00,17.90
2011,07,09,15,01,17.80
2011,07,09,15,02,17.70
2011,07,09,15,03,17.70
2011,07,09,15,04,17.70
2011,07,09,15,05,17.70
2011,07,09,15,06,17.70
2011,07,09,15,07,17.60
2011,07,09,15,08,17.50
2011,07,09,15,09,17.50
2011,07,09,15,10,17.50
2011,07,09,15,11,17.50
2011,07,09,15,12,17.60
2011,07,09,15,13,17.60
2011,07,09,15,14,17.70
2011,07,09,15,15,17.80
2011,07,09,15,16,17.70
2011,07,09,15,17,17.70
2011,07,09,15,18,17.70
2011,07,09,15,19,17.60
2011,07,09,15,20,17.50
2011,07,09,15,21,17.40
2011,07,09,15,22,17.40
2011,07,09,15,23,17.60
2011,07,09,15,24,17.70
2011,07,09,15,25,17.70
2011,07,09,15,26,17.70
2011,07,09,15,27,17.80
2011,07,09,15,28,17.80
2011,07,09,15,29,17.70
2011,07,09,15,30,17.80
2011,07,09,15,31,17.80
2011,07,09,15,32,17.70
2011,07,09,15,33,17.70
2011,07,09,15,34,17.70
2011,07,09,15,35,17.60
2011,07,09,15,36,17.60
2011,07,09,15,37,17.60
2011,07,09,15,38,17.70
2011,07,09,15,39,17.70
2011,07,09,15,40,17.60
2011,07,09,15,41,17.60
2011,07,09,15,42,17.70
2011,07,09,15,43,17.70
2011,07,09,15,44,17.60
2011,07,09,15,45,17.60
2011,07,09,15,46,17.60
2011,07,09,15,47,17.60
2011,07,09,15,48,17.50
2011,07,09,15,49,17.60
2011,07,09,15,50,17.60
2011,07,09,15,51,17.70
2011,07,09,15,52,17.90
2011,07,09,15,53,18.10
2011,07,09,15,54,18.20
2011,07,09,15,55,18.10
2011,07,09,15,56,18.10
2011,07,09,15,57,18.10
2011,07,09,15,58,18.10
2011,07,09,15,59,18.00
2011,07,09,16,00,18.00
2011,07,09,16,01,17.90
2011,07,09,16,02,17.80
2011,07,09,16,03,17.90
2011,07,09,16,04,17.90
2011,07,09,16,05,17.80
2011,07,09,16,06,17.80
2011,07,09,16,07,17.80
2011,07,09,16,08,17.90
2011,07,09,16,09,18.00
2011,07,09,16,10,18.10
2011,07,09,16,11,18.20
2011,07,09,16,12,18.20
2011,07,09,16,13,18.20
2011,07,09,16,14,18.40
2011,07,09,16,15,18.50
2011,07,09,16,16,18.60
2011,07,09,16,17,18.60
2011,07,09,16,18,18.60
2011,07,09,16,19,18.40
2011,07,09,16,20,18.30
2011,07,09,16,21,18.20
2011,07,09,16,22,18.20
2011,07,09,16,23,18.00
2011,07,09,16,24,18.00
2011,07,09,16,25,18.10
2011,07,09,16,26,18.20
2011,07,09,16,27,18.20
2011,07,09,16,28,18.20
2011,07,09,16,29,18.20
2011,07,09,16,30,18.20
2011,07,09,16,31,18.20
2011,07,09,16,32,18.20
2011,07,09,16,33,18.30
2011,07,09,16,34,18.30
2011,07,09,16,35,18.30
2011,07,09,16,36,18.30
2011,07,09,16,37,18.30
2011,07,09,16,38,18.30
2011,07,09,16,39,18.30
2011,07,09,16,40,18.20
2011,07,09,16,41,18.10
2011,07,09,16,42,18.10
2011,07,09,16,43,18.10
2011,07,09,16,44,18.20
2011,07,09,16,45,18.20
2011,07,09,16,46,18.20
2011,07,09,16,47,18.20
2011,07,09,16,48,18.20
2011,07,09,16,49,18.20
2011,07,09,16,50,18.20
2011,07,09,16,51,18.10
2011,07,09,16,52,18.20
2011,07,09,16,53,18.20
2011,07,09,16,54,18.20
2011,07,09,16,55,18.20
2011,07,09,16,56,18.20
2011,07,09,16,57,18.20
2011,07,09,16,58,18.20
2011,07,09,16,59,18.10
2011,07,09,17,00,18.10
2011,07,09,17,01,18.10
2011,07,09,17,02,18.10
2011,07,09,17,03,18.10
2011,07,09,17,04,18.00
2011,07,09,17,05,18.00
2011,07,09,17,06,18.00
2011,07,09,17,07,18.00
2011,07,09,17,08,18.00
2011,07,09,17,09,18.00
2011,07,09,17,10,17.90
2011,07,09,17,11,18.00
2011,07,09,17,12,18.10
2011,07,09,17,13,18.20
2011,07,09,17,14,18.10
2011,07,09,17,15,18.10
2011,07,09,17,16,18.10
2011,07,09,17,17,18.00
2011,07,09,17,18,17.90
2011,07,09,17,19,17.90
2011,07,09,17,20,18.00
2011,07,09,17,21,18.00
2011,07,09,17,22,18.00
2011,07,09,17,23,18.10
2011,07,09,17,24,18.20
2011,07,09,17,25,18.10
2011,07,09,17,26,18.00
2011,07,09,17,27,18.00
2011,07,09,17,28,18.00
2011,07,09,17,29,18.00
2011,07,09,17,30,18.00
2011,07,09,17,31,17.90
2011,07,09,17,32,17.90
2011,07,09,17,33,17.90
2011,07,09,17,34,17.90
2011,07,09,17,35,18.00